Fort Indiantown Gap, PA

1:24 PM EST on November 18, 2017 (GMT -0500)
Muir Army Air Field

Weather History for KMUI - March, 2014

Change the Weather History Date:

Friday, March 14, 2014

  Actual Average Record
Temperature  
Mean Temperature 32 °F -  
Max Temperature 48 °F 44 °F 75 °F (2007)
Min Temperature 17 °F 30 °F 17 °F (2014)
Degree Days  
Heating Degree Days 32    
Moisture  
Dew Point 17 °F    
Average Humidity 56    
Maximum Humidity 94    
Minimum Humidity 29    
Precipitation  
Precipitation 0.00 in - - ()
Sea Level Pressure  
Sea Level Pressure 30.07 in    
Wind  
Wind Speed 4 mph (ESE)    
Max Wind Speed 13 mph    
Max Gust Speed 17 mph    
Visibility 10 miles    
Events      
Averages and records for this station are not official NWS values.
T = Trace of Precipitation, MM = Missing Value Source: NWS Daily Summary

Daily Weather History Graph

Daily Weather History Graph

Search for Another Location

Airport or City:

Trip Planner

Search our weather history database for the weather conditions in past years. The results will help you decide how hot, cold, wet, or windy it might be!

Date:

Astronomy

Mar. 14, 2014 Rise Set
Actual Time 7:19 AM EDT 7:12 PM EDT
Civil Twilight 6:52 AM EDT 7:39 PM EDT
Nautical Twilight 6:20 AM EDT 8:10 PM EDT
Astronomical Twilight 5:48 AM EDT 8:42 PM EDT
Moon 5:31 PM EDT (3/14) 5:58 AM EDT (3/14)
Length of Visible Light 12h 46m
Length of Day
11h 52m
Waxing Gibbous, 96% of the Moon is Illuminated
Mar 14
Waxing Gibbous
Mar 16
Full
Mar 23
Last Quarter
Mar 30
New
Apr 7
First Quarter

Hourly Weather History & Observations

Time (EDT) Temp. Windchill Dew Point Humidity Pressure Visibility Wind Dir Wind Speed Gust Speed Precip Events Conditions
12:58 AM 23.9 °F 16.8 °F 2.1 °F 39% 30.15 in 10.0 mi West 5.8 mph - N/A   Clear
1:58 AM 21.4 °F - 6.4 °F 53% 30.16 in 10.0 mi WNW 2.3 mph - N/A   Clear
2:58 AM 17.8 °F - 10.6 °F 73% 30.16 in 10.0 mi NW 2.3 mph - N/A   Clear
3:58 AM 17.2 °F - 11.5 °F 78% 30.16 in 10.0 mi North 2.3 mph - N/A   Mostly Cloudy
4:58 AM 18.1 °F - 12.4 °F 78% 30.17 in 10.0 mi Calm Calm - N/A   Scattered Clouds
5:58 AM 19.8 °F - 16.3 °F 87% 30.18 in 10.0 mi Calm Calm - N/A   Overcast
6:58 AM 21.6 °F - 14.5 °F 74% 30.19 in 10.0 mi Calm Calm - N/A   Overcast
7:58 AM 23.0 °F - 16.2 °F 75% 30.20 in 10.0 mi ENE 2.3 mph - N/A   Overcast
8:58 AM 25.0 °F - 12.0 °F 58% 30.21 in 10.0 mi Calm Calm - N/A   Overcast
9:58 AM 26.4 °F - 13.1 °F 57% 30.20 in 10.0 mi ENE 2.3 mph - N/A   Overcast
10:58 AM 29.3 °F - 14.5 °F 54% 30.18 in 10.0 mi ESE 1.2 mph - N/A   Overcast
11:58 AM 36.7 °F 34.1 °F 16.0 °F 43% 30.16 in 10.0 mi Variable 3.5 mph - N/A   Clear
12:58 PM 41.2 °F 35.0 °F 12.7 °F 31% 30.12 in 10.0 mi SSW 10.4 mph - N/A   Clear
1:58 PM 45.9 °F 40.8 °F 14.9 °F 29% 30.08 in 10.0 mi South 10.4 mph 17.3 mph N/A   Clear
2:58 PM 47.1 °F - 16.3 °F 29% 30.04 in 10.0 mi South 12.7 mph - N/A   Partly Cloudy
3:58 PM 48.4 °F - 19.0 °F 31% 30.01 in 10.0 mi South 11.5 mph - N/A   Partly Cloudy
4:58 PM 47.1 °F - 18.1 °F 32% 29.98 in 10.0 mi SSE 8.1 mph - N/A   Scattered Clouds
5:58 PM 46.9 °F - 21.9 °F 37% 29.96 in 10.0 mi SSE 9.2 mph - N/A   Clear
6:58 PM 44.1 °F 41.5 °F 20.8 °F 40% 29.94 in 10.0 mi SSE 4.6 mph - N/A   Clear
7:58 PM 39.6 °F 36.3 °F 21.0 °F 48% 29.92 in 10.0 mi Variable 4.6 mph - N/A   Clear
8:58 PM 35.6 °F - 23.4 °F 61% 29.93 in 10.0 mi Calm Calm - N/A   Clear
9:58 PM 34.7 °F 31.8 °F 25.2 °F 68% 29.91 in 10.0 mi NNE 3.5 mph - N/A   Clear
10:58 PM 32.2 °F - 28.2 °F 85% 29.90 in 10.0 mi NE 2.3 mph - N/A   Clear
11:58 PM 31.3 °F 27.9 °F 29.8 °F 94% 29.86 in 10.0 mi NE 3.5 mph - N/A   Clear